Location: Caoma
(10.5237°N, 67.1352°W)
Time: 19:48:48
(UTC+00:00)

STARLINK-31720 - Pass Details

Date: 18 April 2024
Orbit: 443 x 445 km, 43.0° (Epoch: 25 May)

Event Time Altitude Azimuth Distance (km) Brightness Sun altitude
Rises 23:01:26 0° 319° (NW) 2,429 7.9 -6.1°
Reaches altitude 10° 23:03:35 10° 323° (NW) 1,560 6.8 -6.6°
Maximum altitude 23:07:04 59° 43° (NE) 516 3.3 -7.4°
Drops below altitude 10° 23:10:35 10° 124° (SE) 1,563 5.4 -8.3°
Enters shadow 23:10:44 - 125° (SE) 1,624 5.4 -8.3°
